x

Buoy I01 - Eastern Maine Shelf (44034) Wave Buoy

6:04 - Sun 26th Mar 2017 All times are EDT. -4 hours from GMT.

  • Sig Wave height 3.6ft
  • Peak Period 5s
  • Wind
    18mph, 22mph gusts
  • Sea Temp 40°f
  • Luft Temp 29°f
  • Sea Pressure 1033.4mb
  • Buoy I01 - Eastern Maine Shelf
  • Buoy I01 - Eastern Maine Shelf

More Historic Weather Station data

Upgrade to MSW Pro to gain access to the past 30 days of data for over 8000 Wavebouys and Weather Stations around the globe.

Join Pro

Comparision Forecast

View Surf forecast
   
So 03/26 6:04 3.5ft 5s 18 22 mph 1033.4mb 40f 29f
5:04 4ft 5s 22 27 mph 1032.2mb 40f 31f
4:04 3.5ft 5s 22 27 mph 1031.2mb 40f 32f
3:04 3.5ft 4s 22 27 mph 1030.6mb 40f 33f
2:04 4.5ft 11s 20 25 mph 1030.1mb 40f 34f
1:04 3.5ft 8s 18 22 mph 1029.9mb 40f 36f
12:04 3.5ft 8s 20 22 mph 1029mb 40f 37f
Sa 03/25 11:04 3ft 8s 16 18 mph 1028.1mb 40f 39f
10:04 3ft 8s 11 13 mph 1027.1mb 40f 39f
9:04 3ft 6s 9 11 mph 1026.3mb 40f 39f
8:04  -   -  11 13 mph 1025.4mb 40f 39f
7:04 3ft 8s 11 13 mph 1024.5mb 40f 39f
6:04 2.5ft 6s 13 18 mph 1023.7mb 40f 39f
5:04 2.5ft 6s 11 13 mph 1023.4mb 40f 39f
4:04 2ft 6s 9 11 mph 1023.5mb 40f 39f
3:04 2ft 6s 7 9 mph 1022.9mb 40f 39f
2:04 2.5ft 6s 9 13 mph 1022.7mb 40f 39f
1:04 2ft 6s 9 11 mph 1022.3mb 40f 39f
12:04 2.5ft 6s 9 11 mph 1022.4mb 40f 37f
11:04 3.5ft 8s 13 18 mph 1022.3mb 40f 36f
10:04 3.5ft 8s 18 20 mph 1021.9mb 40f 35f
9:04 3.5ft 8s 18 20 mph 1021.3mb 40f 35f
8:04 4ft 8s 13 18 mph 1020.5mb 40f 35f
7:04 4ft 8s 16 18 mph 1019.9mb 39f 35f
6:04 3.5ft 8s 16 18 mph 1018.8mb 39f 35f
5:04 5ft 8s 13 16 mph 1017.8mb 39f 35f
4:04 5.5ft 8s 16 18 mph 1016.8mb 39f 35f
3:04 4.5ft 8s 13 18 mph 1016.5mb 39f 36f
2:04 6ft 8s 16 18 mph 1016.4mb 39f 36f
1:04 7ft 8s 16 18 mph 1016.3mb 39f 37f
12:04 6ft 8s 16 18 mph 1016.4mb 39f 38f
Fr 03/24 11:04  -   -  16 18 mph 1016.3mb 39f 38f
10:04 8ft 8s 22 31 mph 1017mb 39f 39f
9:04 9ft 8s 22 29 mph 1018mb 39f 38f
8:04 9ft 8s 27 34 mph 1018.8mb 39f 38f
7:04 8ft 6s 27 34 mph 1019.2mb 39f 37f
6:04 8ft 6s 27 34 mph 1021mb 39f 36f
5:04 6ft 5s 27 31 mph 1022.1mb 39f 35f
4:04 5.5ft 5s 25 29 mph 1023.6mb 39f 34f
3:04 6ft 5s 25 27 mph 1024.9mb 39f 34f
2:04 4.5ft 5s 25 29 mph 1026.1mb 39f 32f
1:04 3.5ft 5s 20 27 mph 1028.4mb 39f 31f
12:04 3.5ft 4s 22 29 mph 1029.8mb 39f 33f
11:04 2ft 4s 20 22 mph 1030.1mb 39f 33f
10:04 1.6ft 3s 18 22 mph 1031.1mb 39f 32f
9:04 1.3ft 2s 13 18 mph 1030.9mb 39f 31f
8:04 1ft 5s 9 11 mph 1031.1mb 39f 31f
7:04 1ft 5s 4 7 mph 1031.6mb 39f 30f
6:04 1ft 5s 7 9 mph 1032.1mb 39f 29f
5:04 1ft 3s 7 11 mph 1031.9mb 39f 28f
4:04 1.3ft 2s 7 11 mph 1031.7mb 40f 28f
3:04  -   -  11 16 mph 1032.1mb 39f 27f
2:04 1.6ft 3s 13 16 mph 1032.2mb 39f 27f
1:04 2ft 3s 18 20 mph 1032.1mb 39f 27f
12:04 2.5ft 3s 18 22 mph 1031.7mb 39f 27f
Do 03/23 11:04 3ft 4s 20 22 mph 1031.3mb 39f 27f
10:04 3.5ft 4s 22 27 mph 1030.8mb 39f 28f
9:04 3.5ft 4s 22 29 mph 1030.5mb 39f 28f
8:04 3.5ft 4s 25 29 mph 1028.5mb 39f 29f
7:04 4.5ft 4s 22 27 mph 1027.3mb 39f 30f
6:04 4.5ft 4s 25 29 mph 1026.3mb 40f 30f
5:04 3.5ft 4s 27 34 mph 1025.5mb 39f 30f
4:04 3ft 4s 20 25 mph 1025.2mb 39f 29f
3:04 3.5ft 4s 25 31 mph 1024.9mb 39f 28f
2:04 3.5ft 4s 22 29 mph 1025mb 39f 26f
1:04 3.5ft 4s 22 29 mph 1025.3mb 39f 24f
12:04 3.5ft 4s 22 27 mph 1025.7mb 39f 22f
11:04 4ft 4s 20 25 mph 1025.8mb 39f 20f
10:04 4.5ft 5s 25 31 mph 1025.5mb 39f 19f
9:04 5ft 5s 27 34 mph 1025.5mb 39f 17f
8:04 4.5ft 5s 29 34 mph 1025mb 39f 17f
7:04 5ft 5s 29 36 mph 1024.2mb 39f 17f
6:04 6ft 5s 29 34 mph 1023.1mb 39f 17f
5:04 5.5ft 5s 29 38 mph 1022.1mb 39f 18f
4:04 6ft 5s 29 36 mph 1021.6mb 39f 18f
3:04 5.5ft 5s 31 38 mph 1020.8mb 38f 18f
2:04 6ft 5s 29 40 mph 1020.1mb 38f 18f
1:04 6.5ft 5s 29 40 mph 1019.4mb 38f 19f
12:04 6.5ft 5s 36 43 mph 1018.3mb 38f 19f
Mi 03/22 11:04 6.5ft 5s 34 45 mph 1017.2mb 39f 21f
10:04 6.5ft 5s 36 43 mph 1016.4mb 39f 21f
9:04 5.5ft 5s 34 40 mph 1015.2mb 39f 23f
8:04 5.5ft 5s 31 40 mph 1013.8mb 39f 23f
7:04 6.5ft 5s 31 43 mph 1012.5mb 39f 24f
6:04 5.5ft 5s 34 40 mph 1011mb 39f 23f
5:04 5.5ft 5s 29 36 mph 1009.6mb 39f 23f
4:04 5ft 5s 29 43 mph 1008.4mb 39f 24f
3:04 5ft 4s 29 36 mph 1007.5mb 38f 24f
2:04 5ft 5s 29 36 mph 1006.8mb 38f 24f
1:04 5ft 5s 31 38 mph 1006mb 38f 25f
12:04 4.5ft 5s 29 38 mph 1005.1mb 39f 28f